Location: Pulvis Stellarum Observatory
(41.6962°N, 71.4263°W)
Time: 07:08:50
(UTC-04:00)

Daily predictions for brighter satellites

Satellite Brightness Start Highest point End
(mag) Time Altitude Azimuth Time Altitude Azimuth Time Altitude Azimuth
SJ-6B 2.6 19:28:14 10° SSE 19:31:57 75° ENE 19:35:42 10° N
USA 215 4.5 19:28:24 10° ENE 19:32:52 19° ESE 19:37:16 10° SSE
Cosmos 1544 4.1 19:30:16 10° SE 19:33:15 24° E 19:36:17 10° NE
ATLAS 5 CENTAUR R/B 3.3 19:33:18 10° SE 19:36:02 15° ESE 19:38:51 10° ENE
Cosmos 1934 Rocket 3.9 19:30:56 10° S 19:37:00 69° E 19:43:02 10° NNE
Cosmos 2297 4.4 19:35:37 10° SSE 19:40:31 30° ESE 19:45:28 10° NE
Okean 3 Rocket 3.9 19:38:20 10° N 19:42:33 43° ENE 19:46:45 10° SSE
FengYun 1-2 T 4.3 19:37:56 10° SSE 19:43:28 71° ENE 19:49:06 10° N
Cosmos 1867 4.3 19:38:57 10° S 19:43:42 32° ESE 19:48:29 10° NE
ISS -1.7 19:43:49 10° SSE 19:44:57 11° SE 19:45:40 11° ESE
H-2A R/B 2.9 19:43:56 10° SSE 19:47:44 54° ENE 19:51:36 10° N
Spot 2 Rocket 3.6 19:43:22 10° SSE 19:48:20 56° ENE 19:53:21 10° N
Tiangong 1 2.5 19:49:11 10° W 19:51:45 27° SSW 19:54:18 10° SE
Abrixas 2.4 19:50:52 10° WNW 19:53:42 62° NNE 19:55:43 17° ESE
Meteor 1-24 Rocket 3.9 19:48:28 10° NNW 19:53:58 76° W 19:59:40 10° S
Cosmos 2082 Rocket 2.8 19:49:04 10° N 19:54:23 39° ENE 19:59:15 12° SE
Cosmos 1812 Rocket 4.2 19:51:12 10° SSW 19:55:34 62° W 19:59:56 10° N
Cosmos 1076 Rocket 4.0 19:52:24 10° N 19:56:24 38° ENE 20:00:21 10° SSE
Helios 1B rocket 3.3 19:53:04 10° NE 19:56:36 27° E 20:00:07 10° SSE
Cosmos 1758 3.6 19:53:01 10° SSE 19:56:46 42° E 20:00:34 10° NNE
Lacrosse 5 2.2 19:52:26 10° SW 19:57:29 69° NW 20:02:34 10° NE
Cosmos 1953 2.5 20:00:50 10° SSE 20:04:45 49° E 20:08:41 10° NNE
Lacrosse 4 Rocket 3.9 20:01:45 10° WSW 20:05:00 23° NW 20:08:15 10° N
Envisat 3.8 20:02:47 14° SE 20:06:30 31° ENE 20:10:58 10° N
GP-B 3.6 20:04:12 10° SSE 20:08:17 38° E 20:12:23 10° NNE
USA 186 1.5 20:08:21 32° E 20:08:41 34° ENE 20:10:45 10° N
Helios 1A 3.3 20:06:44 11° SE 20:10:32 46° ENE 20:14:33 10° N
Cosmos 1939 Rocket 4.1 20:09:38 20° ESE 20:11:11 25° ENE 20:14:34 10° NNE
Cosmos 1766 Rocket 4.0 20:07:34 10° N 20:11:50 42° ENE 20:15:22 14° SE
CZ-3 Stage 3 4.3 19:22:44 10° WSW 20:13:45 54° S 20:20:18 18° ESE
Cosmos 1271 Rocket 3.6 20:10:34 10° SSE 20:14:02 29° E 20:17:34 10° NNE
Resurs 01 Rocket 1.8 20:09:55 10° S 20:14:19 75° WSW 20:18:46 10° NNW
Cosmos 1125 Rocket 3.4 20:09:41 10° S 20:14:48 64° ESE 20:19:59 10° NNE
Cosmos 1048 Rocket 4.0 20:13:01 10° NNW 20:18:06 60° ENE 20:22:08 16° SE
Geosat 3.9 20:14:49 10° NNE 20:19:50 66° ESE 20:24:49 10° SSW
Cosmos 1605 Rocket 4.2 20:14:19 10° S 20:20:36 80° W 20:27:00 10° N
Cosmos 2100 Rocket 4.3 20:16:42 10° SSE 20:22:40 46° E 20:28:42 10° NNE
Cosmos-2242 3.3 20:18:46 10° SSE 20:22:45 42° E 20:26:47 10° NNE
ERS-1 Rocket 4.1 20:23:22 23° E 20:24:47 26° ENE 20:28:54 10° N
Lacrosse 5 rocket 2.3 20:21:57 10° NNW 20:25:29 30° NNE 20:26:41 25° ENE
Fregat R/B Cluster 11 4.2 20:21:07 10° SSW 20:27:34 81° ESE 20:30:57 10° NE
SeaSat 1 3.7 20:23:58 10° S 20:28:36 41° WSW 20:33:16 10° NW
Cosmos 1674 2.6 20:26:14 10° N 20:30:00 61° E 20:31:54 27° SSE
SAR-Lupe-4 3.5 20:31:34 17° S 20:34:12 84° WSW 20:37:48 10° NNW
YAOGAN 6 4.2 20:36:25 22° NE 20:36:25 22° NE 20:38:42 10° NNE
CZ-2D R/B 4.4 20:39:26 10° S 20:43:07 43° W 20:46:51 10° NNW
Cosmos 1743 Rocket 3.9 20:39:06 10° N 20:43:20 42° ENE 20:43:51 41° E
Cosmos 1802 Rocket 4.0 20:37:55 10° SSE 20:43:49 53° E 20:49:48 10° NNE
Meteor 1-21 Rocket 4.4 20:38:20 10° NNW 20:44:11 78° W 20:50:04 10° S
BREEZE-M DEB (TANK) 3.7 20:42:39 10° NW 20:44:39 24° NNE 20:44:40 24° NNE
Cosmos 1500 Rocket 4.4 20:41:11 10° NNE 20:44:37 31° ENE 20:44:37 31° ENE
Meteor 1-29 2.8 20:42:16 10° NNE 20:45:45 85° ESE 20:48:19 17° S
CZ-3B DEB 3.8 20:38:37 10° WSW 20:47:54 41° NW 20:52:25 10° NE
Cosmos 1356 Rocket 4.5 20:45:05 10° N 20:47:56 28° NE 20:47:56 28° NE
Cosmos 1818 4.2 20:45:43 10° NW 20:51:01 54° WSW 20:54:41 20° S
GPS 2-05 Rocket1 4.4 20:49:05 10° SW 20:51:22 25° SSW 20:51:22 25° SSW
COSMOS 2487 2.9 20:48:40 10° NNW 20:52:12 60° WSW 20:53:15 40° SSW
Cosmos 2251 Rocket 4.1 20:48:02 10° N 20:53:01 38° ENE 20:53:40 37° E
Cosmos 1269 Rocket 4.4 20:51:55 10° NNW 20:57:08 61° WSW 21:00:49 19° S
Cosmos 2061 Rocket 3.9 20:50:55 10° S 20:57:16 75° E 21:03:43 10° N
Timation 2 Rocket 4.0 20:56:01 10° NNW 21:02:20 79° WSW 21:05:26 31° SSE
Cosmos 1833 Rocket 2.9 20:57:06 10° NNW 21:02:42 69° WSW 21:05:39 29° S
Cosmos 1470 3.1 21:00:38 11° SSW 21:04:22 64° W 21:08:20 10° N
Cosmos 1408 Rocket 4.3 21:00:20 10° NNW 21:04:41 52° W 21:07:46 18° SSW
Cosmos 2278 Rocket 4.4 21:04:12 10° WSW 21:08:54 26° NW 21:13:37 10° N
Cosmos 1340 Rocket 3.1 21:07:43 10° NNW 21:11:44 65° W 21:12:09 60° SW
CZ-4B DEB 4.2 21:12:02 33° W 21:12:05 33° W 21:14:57 10° NNW
Cosmos 1733 4.0 21:10:59 20° SSW 21:13:25 50° W 21:17:13 10° N
Cosmos 1459 Rocket 4.1 21:08:01 10° SSW 21:14:17 76° W 21:20:29 10° N
USA 215 3.1 21:09:57 10° NE 21:16:30 78° SE 21:23:01 10° SW
Cosmos 1842 Rocket 4.0 21:18:20 51° NNE 21:18:20 51° NNE 21:21:42 10° N
ATLAS 5 CENTAUR R/B 2.2 21:15:20 10° SW 21:20:00 64° NW 21:25:06 10° NNE
Cosmos 2173 Rocket 4.2 21:13:55 10° SSW 21:20:03 70° W 21:26:19 10° N
ISS -1.2 21:17:43 10° WSW 21:18:25 15° WSW 21:18:25 15° WSW
Cosmos 2151 4.0 21:20:34 10° N 21:23:14 36° NNE 21:23:14 36° NNE
Cosmos 1864 Rocket 4.4 21:24:22 60° SE 21:25:07 65° E 21:31:22 10° NNE
Meteor 1-11 4.0 21:30:59 10° N 21:36:35 87° E 21:36:36 87° E
Cosmos 494 Rocket 4.0 21:32:36 10° NNW 21:37:19 76° NNW 21:37:19 76° NNW
Cosmos 2082 Rocket 3.7 21:33:24 10° NW 21:38:19 31° WSW 21:41:10 20° SSW
Lacrosse 5 4.2 21:37:30 10° WNW 21:41:17 21° NNW 21:45:05 10° NNE
SPOT 5 3.4 21:45:02 59° NNE 21:45:02 59° NNE 21:49:26 10° N
USA 267 3.6 21:48:09 47° NE 21:48:55 50° NNE 21:55:11 10° NW
MetOp-A 4.3 21:50:03 71° NW 21:50:03 71° NW 21:54:53 10° NNW
ARGOS 3.6 21:51:33 54° N 21:51:33 54° N 21:55:42 10° N
H-2A R/B 3.3 21:52:51 33° NNE 21:52:51 33° NNE 21:56:01 10° N
Cosmos 1725 Rocket 4.2 21:59:08 61° SW 21:59:59 68° W 22:06:11 10° N
Terra 4.1 22:04:46 17° NNE 22:04:46 17° NNE 22:06:00 10° N
ERS-1 Rocket 4.1 22:03:21 38° W 22:03:21 38° W 22:08:04 10° NNW
Lacrosse 5 rocket 3.8 22:01:14 10° WNW 22:02:25 17° WNW 22:02:25 17° WNW
Tsikada Rocket 4.5 22:11:24 10° NNW 22:17:25 53° W 22:17:28 53° W
Cosmos 2369 Rocket 4.3 22:34:53 18° NNE 22:34:53 18° NNE 22:36:13 10° NNE
USA 215 4.4 22:53:13 10° NE 22:59:10 39° NNW 23:05:06 10° W
